Location: Lansingburgh
(42.7845°N, 73.6696°W)
Time: 03:53:47
(UTC+00:00)

BlueWalker 3 - Visible Passes

Search period start: 14 December 2025 00:00
Search period end: 24 December 2025 00:00
Orbit: 455 x 462 km, 53.2° (Epoch: 13 December)

Date Brightness Start Highest point End Pass type
(mag) Time Alt. Az. Time Alt. Az. Time Alt. Az.
19 Dec 3.9 11:26:05 10° SSW 11:29:15 31° SE 11:32:28 10° ENE visible
20 Dec 4.2 10:51:24 10° S 10:54:19 24° SE 10:57:15 10° ENE visible
21 Dec 4.5 10:16:50 10° S 10:19:22 18° SE 10:21:54 10° E visible
22 Dec 4.7 09:43:02 12° SSE 09:44:25 14° SE 09:46:22 10° E visible
22 Dec 1.6 11:17:54 10° WSW 11:21:29 76° NW 11:25:05 10° NE visible
23 Dec 1.7 10:44:30 26° SW 10:46:25 84° SE 10:50:01 10° NE visible
